Theta_e
319 320 320 321 321 323 323 322 321 322 326 329 327 331 336 351 353 354 352 352 352 352 349 349 350 352 351 350 350 348 347 346 339 343 335 337 337 336 340 342 349 347 348 347
318 319 319 322 323 323 322 320 320 321 324 328 327 328 330 337 351 354 354 353 353 350 348 350 351 350 349 349 348 347 345 341 340 338 336 337 337 337 337 346 349 349 348 347
320 321 323 324 324 323 321 322 321 324 322 322 325 324 324 329 335 345 350 352 351 351 350 349 353 349 349 349 348 346 345 342 338 336 337 337 337 337 345 348 347 346 346 347
321 321 323 322 324 322 323 321 326 329 323 323 323 324 326 327 334 349 353 351 350 352 351 352 355 351 349 348 350 350 345 342 337 336 337 339 340 343 345 346 345 345 346 346
324 325 325 326 325 322 322 323 327 327 323 323 324 325 326 329 349 353 353 353 351 352 353 353 354 354 351 351 352 349 344 339 337 336 337 339 343 344 348 345 345 345 343 341
323 324 326 326 326 324 323 322 320 321 318 321 321 327 328 329 337 342 355 354 355 354 353 351 352 353 351 349 348 346 341 338 340 337 335 336 343 348 345 343 343 342 339 340
323 325 327 327 326 323 320 318 320 322 325 324 327 331 329 329 333 337 352 350 356 355 353 350 355 354 351 347 346 343 339 338 340 343 345 348 349 344 344 343 341 339 340 341
325 326 327 327 326 325 322 319 320 324 328 326 326 331 330 334 338 337 338 342 355 354 352 350 353 353 354 350 347 346 345 343 343 344 348 349 348 344 343 341 338 339 341 340
325 327 327 326 325 323 324 323 319 320 320 324 324 330 331 334 343 349 353 355 354 352 351 350 349 352 354 354 353 353 352 352 351 350 348 347 345 343 342 339 338 339 338 337
322 324 323 326 324 323 323 320 322 318 327 328 326 332 332 336 339 343 350 350 350 350 350 349 350 349 353 354 354 354 353 351 351 348 347 344 343 344 340 338 337 337 337 336
320 321 323 325 325 324 323 322 317 317 319 323 324 324 331 337 337 340 345 347 349 350 350 349 346 348 353 354 353 353 352 350 348 348 346 344 344 341 338 337 338 337 336 335
320 318 322 323 325 324 323 323 318 321 323 320 321 327 333 337 335 338 341 340 338 340 345 347 345 347 351 353 352 351 347 344 342 346 346 343 344 340 338 338 337 336 335 334
320 320 323 323 322 323 327 325 320 318 318 323 325 324 335 336 337 335 335 336 340 340 345 345 345 344 347 350 349 345 341 334 338 344 346 342 343 339 337 337 336 336 335 334
324 317 321 324 324 325 328 328 324 321 324 323 324 328 339 338 334 331 332 335 338 337 346 345 344 341 341 346 341 340 341 334 336 343 345 342 341 339 338 337 337 335 334 333
321 327 326 324 326 326 327 330 328 326 324 327 325 335 334 336 336 333 334 335 336 335 347 345 344 338 336 339 336 338 341 340 343 346 346 343 341 339 338 337 337 336 334 332
318 325 325 327 329 329 330 330 329 331 326 331 330 338 332 334 333 335 335 336 340 337 338 347 345 338 333 337 337 337 339 343 345 347 346 344 341 340 338 337 336 334 332 331
333 322 320 322 330 325 324 330 334 343 341 336 334 332 334 336 336 337 336 336 337 341 338 348 346 339 332 336 334 335 337 341 345 346 346 344 341 339 338 336 336 334 332 329
330 332 326 330 327 326 324 339 340 343 343 337 336 334 334 337 338 336 333 333 340 335 340 344 345 338 333 336 336 337 338 342 345 345 346 343 340 339 338 336 335 334 331 329
322 324 327 330 330 327 330 340 340 337 342 339 341 345 342 340 338 335 333 330 344 346 345 345 347 340 335 340 336 337 339 343 345 344 344 341 334 339 339 336 334 334 332 327
319 319 325 325 330 332 327 334 337 333 340 337 342 344 341 339 333 332 336 340 340 337 337 341 345 345 339 336 336 340 342 334 332 338 344 343 341 339 339 336 334 333 331 327
315 316 323 327 326 325 325 331 336 326 325 335 340 341 338 337 331 329 341 339 336 334 334 336 339 336 340 341 338 341 333 332 333 333 336 339 341 341 341 337 334 333 330 327
318 318 319 322 325 326 328 336 329 320 334 334 337 336 335 335 337 337 338 336 335 334 333 333 333 332 333 338 335 333 332 331 332 333 334 335 338 340 338 336 334 332 330 327
327 318 319 320 321 326 341 340 337 333 337 337 334 331 333 337 339 338 335 332 331 330 329 329 330 331 331 334 334 333 327 330 331 330 331 332 334 336 335 335 333 331 328 325
326 328 331 333 341 343 339 338 340 342 342 340 337 337 335 337 337 334 332 329 328 328 326 327 327 327 327 328 329 328 327 327 327 327 328 329 329 331 333 334 333 330 327 323
324 328 332 335 335 334 335 335 336 341 342 341 340 340 338 337 336 333 331 329 329 328 326 326 326 325 325 325 325 325 324 324 324 324 324 325 326 327 327 327 325 326 324 323
328 329 333 334 331 332 334 333 334 338 340 342 341 339 337 335 334 332 331 333 332 329 326 325 325 324 324 324 323 322 322 322 322 321 321 322 323 323 324 323 320 321 321 320
Wind_Speed
5 5 3 5 5 3 3 3 7 4 6 2 3 4 8 13 10 10 11 10 10 12 7 14 14 17 21 25 28 21 15 20 13 15 9 7 21 9 7 5 3 1 2 2
6 4 8 4 5 6 6 5 5 5 5 3 2 4 5 9 16 18 17 12 12 7 6 11 15 18 20 26 26 16 16 16 14 11 8 8 6 7 6 7 5 3 1 2
5 6 2 3 5 5 3 2 2 5 6 5 5 6 4 4 6 8 10 10 8 12 10 8 13 17 18 22 23 17 16 15 9 6 3 1 6 6 10 12 9 5 1 1
5 6 2 5 6 6 2 3 2 2 4 2 4 4 6 6 6 6 8 9 9 10 7 7 10 16 19 21 19 13 14 12 7 3 2 2 7 9 10 11 6 6 4 3
6 2 7 4 7 6 7 1 3 3 4 3 4 4 7 5 4 4 7 8 8 9 13 11 13 18 24 23 19 16 16 14 7 1 2 4 9 12 7 6 7 6 6 8
6 3 4 6 3 2 4 5 7 4 4 3 6 4 6 3 4 1 3 6 9 12 9 8 13 20 20 22 19 18 20 17 9 2 3 3 6 5 5 5 4 6 9 9
5 3 4 4 3 4 7 7 4 5 5 5 4 2 6 9 7 4 7 7 10 14 13 11 11 13 18 20 19 18 19 18 13 8 4 3 2 3 3 4 6 9 9 11
3 6 5 1 4 6 2 7 6 4 3 4 2 3 5 5 8 2 5 4 5 12 13 13 12 15 17 21 21 19 18 16 14 10 7 5 4 5 4 5 7 7 8 10
4 5 3 2 3 7 2 2 4 7 2 3 4 4 4 5 6 7 7 10 10 7 8 10 10 18 18 21 22 21 19 15 16 15 12 12 11 8 5 5 6 6 9 11
5 2 3 5 4 3 8 7 3 3 2 1 4 4 4 5 6 6 5 8 8 8 8 10 13 17 16 23 21 18 19 19 19 20 17 13 11 9 7 7 7 6 9 9
5 3 6 4 1 7 2 1 7 5 4 5 1 6 7 8 5 6 5 8 12 12 14 10 9 16 24 25 21 19 17 17 18 19 17 13 12 10 8 9 7 7 9 7
8 5 4 10 3 4 2 3 6 5 4 2 4 6 5 8 8 7 8 10 6 6 5 5 13 18 22 20 19 17 9 12 10 13 17 14 13 12 11 9 7 6 11 10
8 1 1 10 7 4 7 3 6 5 4 5 5 5 2 5 6 3 6 6 3 5 7 7 10 12 19 21 19 20 19 16 16 12 14 13 14 12 10 8 6 6 8 9
9 4 7 8 7 4 4 4 5 5 3 3 5 6 6 4 3 7 8 5 3 2 5 7 7 12 20 23 20 21 20 22 19 13 14 14 17 13 12 9 7 5 6 8
5 4 4 3 4 4 3 4 6 5 5 5 4 7 7 7 9 6 4 5 3 5 5 8 10 9 19 19 18 23 22 23 19 17 20 18 17 14 12 9 8 6 6 7
4 2 3 1 1 3 3 3 7 6 3 3 5 5 6 3 2 6 7 3 3 2 0 3 5 8 11 18 21 21 19 20 19 20 23 20 17 16 15 13 12 10 9 7
3 4 3 3 2 4 4 2 4 3 3 1 6 8 4 3 5 6 8 6 9 7 5 7 8 13 16 19 22 23 23 18 16 18 20 19 18 19 16 15 15 13 11 10
3 3 3 2 3 2 4 4 8 11 5 3 0 6 7 3 4 8 5 4 6 8 7 7 12 14 16 16 17 16 13 14 14 13 13 10 10 15 17 18 16 14 12 11
4 4 4 4 2 3 4 4 4 4 0 3 3 3 2 3 4 8 7 6 7 4 11 12 19 21 28 29 26 17 16 12 9 7 8 12 14 24 27 26 20 18 16 14
6 6 5 3 4 3 6 3 6 5 2 6 7 10 12 7 2 3 3 8 13 8 8 7 8 17 27 30 25 18 19 15 11 8 10 19 22 23 29 26 23 18 16 15
4 3 4 3 2 6 6 3 1 5 7 9 11 9 6 5 5 1 5 8 21 17 10 7 10 9 12 25 32 28 28 22 11 7 11 12 14 26 29 28 24 21 20 17
3 4 3 3 4 5 2 3 6 7 2 16 17 13 7 5 4 4 8 6 12 12 11 9 12 11 9 13 18 21 10 13 8 4 6 6 5 18 26 29 24 23 21 19
1 4 3 6 5 4 4 4 5 2 3 3 1 6 4 3 4 5 6 8 11 10 10 8 11 13 11 8 10 15 4 5 4 4 4 1 4 15 21 25 25 22 20 18
3 2 2 2 0 4 6 6 6 4 3 3 3 3 6 4 5 6 6 6 9 10 9 8 11 12 9 7 7 8 7 5 4 5 4 4 7 13 19 22 21 21 20 17
2 4 1 2 4 5 4 6 6 7 5 7 7 4 5 6 5 6 4 5 10 11 8 9 10 10 8 7 8 5 4 4 6 7 7 7 10 13 14 15 13 15 14 12
1 2 2 3 4 3 4 2 5 7 6 4 5 7 10 10 6 5 5 5 8 9 9 9 9 6 6 5 5 5 6 9 11 11 10 10 12 14 16 17 16 12 10 8
Wind_Direction
0 43 233 225 211 214 266 233 244 265 351 89 196 268 191 183 192 188 199 197 202 201 196 183 162 175 171 177 172 177 201 202 224 224 211 204 241 248 170 97 66 141 198 273
17 252 240 233 233 239 219 241 330 301 342 39 47 326 94 162 213 202 194 196 193 147 147 134 154 170 178 176 171 183 194 203 212 239 220 199 206 185 110 41 58 89 33 308
168 238 11 195 291 283 220 171 274 240 341 29 22 342 331 215 251 208 205 187 165 166 162 150 153 160 181 175 176 187 198 190 196 209 193 317 119 95 44 48 66 63 38 269
222 270 274 280 244 166 293 189 196 37 73 219 39 267 303 327 323 149 150 158 160 140 138 141 144 147 183 188 191 193 186 186 193 246 143 79 68 49 32 34 59 82 67 19
244 313 4 313 225 159 218 142 59 116 97 61 322 72 267 357 331 194 162 159 159 134 153 149 160 164 177 193 187 183 178 175 176 116 133 41 19 358 9 72 98 72 33 357
240 252 229 221 256 175 118 78 43 53 74 29 276 115 291 279 323 141 142 169 133 152 140 130 140 157 165 175 177 174 173 175 171 148 182 281 340 41 87 106 56 25 18 17
321 266 273 205 216 29 71 57 358 2 15 214 284 23 245 308 326 258 180 163 155 152 147 139 151 158 161 172 173 174 175 180 184 191 212 239 284 140 128 85 37 25 30 29
129 319 192 37 170 181 101 142 148 191 192 264 286 265 301 293 293 41 68 130 125 143 151 155 160 151 172 173 178 174 176 177 184 196 214 198 180 154 121 73 58 53 43 37
155 272 305 257 170 136 188 108 182 102 30 51 284 311 300 333 36 62 103 110 101 103 148 150 155 161 175 177 181 181 173 172 166 161 163 160 163 152 128 91 90 71 63 56
194 290 231 289 83 68 158 156 77 16 147 244 305 287 230 303 331 339 117 120 124 136 144 163 178 161 176 183 182 177 169 173 172 155 159 160 154 153 128 116 104 83 73 62
133 117 281 21 277 174 87 122 50 113 116 158 168 274 199 242 279 297 262 186 150 167 174 176 131 157 178 190 179 179 177 182 180 166 161 154 155 140 120 124 114 81 82 67
196 149 237 238 287 282 142 143 133 122 233 117 146 267 211 226 231 254 328 43 42 8 345 147 143 157 174 183 179 165 159 166 193 185 159 154 163 152 134 139 117 103 87 76
171 201 324 331 352 1 75 87 94 96 79 188 135 260 260 271 339 15 86 54 20 336 178 154 145 155 176 180 170 136 130 141 190 229 168 164 177 166 152 140 120 114 94 86
105 124 158 208 207 174 124 65 106 112 107 185 224 280 275 9 345 256 203 147 206 329 181 155 151 168 174 186 170 158 165 164 194 215 185 179 182 175 165 153 139 124 105 98
108 130 148 151 169 166 149 118 155 178 185 154 249 211 276 203 221 253 327 20 7 12 146 184 160 188 178 184 162 149 161 178 192 191 187 191 191 182 171 162 157 151 129 103
352 131 104 86 126 143 130 123 103 75 130 90 141 252 237 244 332 292 291 313 273 230 264 169 168 205 173 181 165 157 171 182 185 193 191 195 195 192 179 176 170 163 147 132
54 114 90 196 278 111 26 45 95 115 77 157 177 232 166 203 252 261 280 325 345 293 177 174 194 193 188 186 177 178 178 187 195 198 204 200 197 194 187 181 178 172 159 148
111 82 87 150 22 78 245 326 125 109 44 15 73 154 179 162 261 276 242 108 18 334 267 224 171 173 180 191 212 200 189 195 199 203 208 176 193 202 198 198 188 180 169 158
72 107 69 117 99 279 107 235 184 140 2 300 187 134 147 185 285 268 205 143 105 296 296 252 181 184 182 185 205 208 180 162 159 152 170 195 223 232 217 200 189 193 172 163
52 71 105 82 104 167 245 291 148 112 319 216 209 194 188 179 206 256 57 167 102 80 341 24 142 162 189 195 192 185 174 170 200 192 195 208 218 224 220 205 190 188 182 165
32 11 135 121 132 283 244 225 297 82 240 185 209 222 192 192 211 147 79 48 67 64 43 51 97 104 166 184 182 179 170 171 242 233 217 227 213 216 224 207 194 186 182 168
163 142 185 99 108 251 40 146 180 213 270 192 202 205 205 251 286 64 78 61 78 78 65 87 97 97 109 170 172 168 166 184 186 217 235 240 235 221 200 194 189 185 178 169
7 156 208 172 213 283 313 298 358 137 217 205 158 54 9 293 3 37 67 61 71 85 94 98 95 88 81 114 172 184 158 178 163 168 203 162 172 189 184 179 179 175 178 171
7 36 84 89 310 0 324 344 29 22 341 54 85 135 140 143 103 75 77 83 90 82 82 88 90 86 86 105 128 142 164 185 188 181 156 137 153 151 165 174 177 178 176 170
220 1 55 345 310 315 307 17 333 356 61 95 72 79 116 117 104 107 99 93 95 99 96 93 84 90 102 107 105 111 137 161 166 166 152 148 138 134 139 150 159 169 166 172
307 194 121 219 244 221 228 350 355 32 16 73 91 62 52 64 70 64 80 97 119 124 128 119 112 115 111 110 114 126 157 179 180 172 162 154 140 134 135 137 128 134 144 151